{"data":{"norad_id":54104,"intl_designator":"2022-136BF","name":"STARLINK-5203","alt_names":[],"object_type":"PAYLOAD","status":"ACTIVE","operator":null,"country":"US","launch_date":"2022-10-20","launch_site_code":"AFETR","launch_vehicle":null,"mission":null,"orbit_class":"UNKNOWN","rcs_meters":null,"size_class":null,"mass_kg":null,"dimensions":null,"purposes":["comms"],"wikipedia_slug":null,"has_3d_model":false,"image_url":null,"decayed_at":null,"tle_current":{"epoch":"2026-09-20T21:40:24.364128Z","epoch_age_seconds":54524,"freshness":"FRESH","line1":"1 54104U 22136BF  26263.90305977  .00000518  00000+0  28477-4 0  9992","line2":"2 54104  53.1592 128.2264 0001386  84.2374 275.8786 15.31697761217146","mean_motion":15.31697761,"eccentricity":0.0001386,"inclination_deg":53.1592,"raan_deg":128.2264,"arg_perigee_deg":84.2374,"mean_anomaly_deg":275.8786,"bstar":2.8477e-5,"rev_number":21714,"period_min":94.013325387371,"perigee_km":469.79741429967,"apogee_km":471.69592485287,"semimajor_km":6848.8836695763,"source":"CELESTRAK","updated_at":"2026-09-21T09:00:33.086533Z"}}}